This demonstration page uses our WeatherBlox Daily Observations layout. Learn more.

Left ArrowRight Arrow

39.08367, -84.50855

Hourly Observations for April 4, 2020

Temp ( °F °C ) Dew Point ( °F °C ) Humidity (%) Winds ( mph kmh ) Pressure ( in mb ) Visibility ( mi km ) Precip ( " mm )
12:53 am 00:53 Clear 45 7.2 42 5.6 90 90 Calm 30.03 1017 10 16 0.00 0.00
1:53 am 01:53 Clear 44 6.7 42 5.6 93 93 Calm 30.02 1017 8 13 0.00 0.00
2:53 am 02:53 Clear 44 6.7 41 5 89 89 Calm 30.01 1016 9 14 0.00 0.00
3:53 am 03:53 Clear 42 5.6 41 5 96 96 Calm 30.01 1016 7 11 0.00 0.00
4:53 am 04:53 Clear with Mist and Fog 41 5 40 4.4 96 96 Calm 30.02 1017 6 10 0.00 0.00
5:53 am 05:53 Mostly Clear with Mist and Fog 41 5 40 4.4 96 96 Calm 30.03 1017 6 10 0.00 0.00
6:26 am 06:26 Mostly Cloudy with Mist and Fog 41 5 40 4.4 96 96 Calm 30.06 1018 3 4 0.00 0.00
6:34 am 06:34 Cloudy with Mist and Fog 42 5.6 40 4.4 92 92 Calm 30.06 1018 6 10 0.00 0.00
6:53 am 06:53 Mostly Cloudy 42 5.6 41 5 96 96 Calm 30.04 1017 10 16 0.00 0.00
7:53 am 07:53 Cloudy 44 6.7 42 5.6 93 93 Calm 30.05 1018 7 11 0.00 0.00
8:53 am 08:53 Cloudy 47 8.3 45 7.2 93 93 Calm 30.07 1018 9 14 0.00 0.00
9:53 am 09:53 Cloudy 50 10 45 7.2 83 83 Calm 30.08 1019 10 16 0.00 0.00
10:53 am 10:53 Cloudy 54 12.2 47 8.3 77 77 Calm 30.09 1019 10 16 0.00 0.00
11:53 am 11:53 Sunny 61 16.1 43 6.1 52 52 S 3 6 30.07 1018 10 16 0.00 0.00
12:53 pm 12:53 Sunny 66 18.9 44 6.7 45 45 SSW 6 9 30.04 1017 10 16 0.00 0.00
1:53 pm 13:53 Sunny 71 21.7 44 6.7 38 38 W 6 9 30.02 1017 10 16 0.00 0.00
2:53 pm 14:53 Sunny 72 22.2 44 6.7 37 37 VRB 5 7 29.99 1016 10 16 0.00 0.00
3:53 pm 15:53 Sunny 73 22.8 45 7.2 37 37 W 6 9 29.96 1015 10 16 0.00 0.00
4:53 pm 16:53 Partly Cloudy 72 22.2 46 7.8 40 40 Calm 29.95 1014 10 16 0.00 0.00
5:53 pm 17:53 Cloudy 71 21.7 44 6.7 38 38 Calm 29.95 1014 10 16 0.00 0.00
6:53 pm 18:53 Cloudy 69 20.6 47 8.3 45 45 NNW 6 9 29.96 1015 10 16 0.00 0.00
7:53 pm 19:53 Cloudy 67 19.4 49 9.4 53 53 NNW 10 17 29.98 1015 10 16 0.00 0.00
8:53 pm 20:53 Cloudy 66 18.9 50 10 56 56 N 6 9 30.00 1016 10 16 0.00 0.00
9:53 pm 21:53 Mostly Clear 63 17.2 50 10 63 63 VRB 6 9 30.01 1016 10 16 0.00 0.00
10:53 pm 22:53 Mostly Clear 62 16.7 51 10.6 67 67 NNW 10 17 30.03 1017 10 16 0.00 0.00
11:53 pm 23:53 Cloudy 58 14.4 50 10 75 75 N 9 15 30.04 1017 10 16 0.00 0.00

Powered by AerisWeather